Hourly Data Report for September 20, 2017

All times are specified in Local Standard Time (LST). Add 1 hour to adjust for Daylight Saving Time where and when it is observed.

CLYDE RIVER A
NUNAVUT

70°29'09.000" N
68°31'01.000" W
26.50 m
2400804
71090
YCY

Related Data

No related data is available for this station

Download Data

Hourly Data (September 2017)
Hourly Data Report for September 20, 2017
Temp Definition
°C
Dew Point Temp Definition
°C
Rel Hum Definition
%
Wind Dir Definition
10's deg

Wind Spd Definition
km/h
Visibility Definition
km
Stn Press Definition
kPa
Hmdx Definition


Wind Chill Definition


Weather Definition


TIME
00:00 Legend Double Dagger 0.3 -0.9 92 36 21 16.1 101.93     LegendNANA
01:00 Legend Double Dagger 0.0 -1.1 92 36 18 16.1 101.97   -5 Rain,Snow
02:00 Legend Double Dagger -0.1 -1.1 93 36 15 14.5 102.00   -5 Snow
03:00 Legend Double Dagger 0.0 -1.3 91 35 17 16.1 102.03   -5 Snow
04:00 Legend Double Dagger 0.0 -2.1 86 35 21 16.1 102.06   -5 LegendNANA
05:00 Legend Double Dagger -0.5 -2.1 89 35 22 16.1 102.10   -6 Snow
06:00 Legend Double Dagger -0.5 -2.9 84 36 24 16.1 102.12   -6 LegendNANA
07:00 Legend Double Dagger -0.8 -3.3 83 33 24 16.1 102.15   -7 Snow
08:00 Legend Double Dagger -0.7 -3.4 82 33 24 16.1 102.19   -7 LegendNANA
09:00 Legend Double Dagger -0.6 -3.3 82 33 21 16.1 102.20   -6 LegendNANA
10:00 Legend Double Dagger -0.6 -3.6 80 32 21 16.1 102.18   -6 LegendNANA
11:00 Legend Double Dagger -0.7 -2.6 87 31 22 16.1 102.17   -6 LegendNANA
12:00 Legend Double Dagger -0.3 -2.8 83 30 22 16.1 102.17   -6 LegendNANA
13:00 Legend Double Dagger -0.3 -4.7 72 32 26 16.1 102.16   -6 LegendNANA
14:00 Legend Double Dagger -0.6 -3.8 79 31 18 16.1 102.17   -6 LegendNANA
15:00 Legend Double Dagger -0.6 -3.9 78 32 17 16.1 102.20   -6 LegendNANA
16:00 Legend Double Dagger -0.6 -3.7 80 30 18 16.1 102.18   -6 LegendNANA
17:00 Legend Double Dagger -0.9 -2.5 89 30 9 16.1 102.18   -4 Snow
18:00 Legend Double Dagger -0.8 -3.3 83 29 13 16.1 102.14   -5 LegendNANA
19:00 Legend Double Dagger -1.2 -4.7 77 27 13 16.1 102.10   -5 LegendNANA
20:00 Legend Double Dagger -3.4 -6.3 80 26 17 16.1 102.09   -9 LegendNANA
21:00 Legend Double Dagger -2.2 -5.5 78 25 15 16.1 102.09   -7 LegendNANA
22:00 Legend Double Dagger -1.9 -4.9 80 27 21 16.1 102.08   -8 Snow
23:00 Legend Double Dagger -1.1 -3.9 81 29 24 16.1 102.05   -7 Snow

Notes on Data Quality.

Legend

  • E = Estimated
  • M = Missing
  • NA = Not Available
  • ‡ = Partner data that is not subject to review by the National Climate Archives
Date modified: